FW0515 Weather Reports


time (UTC)temp
C
wind
direction
speed
KPH
gust
KPH
rain 1hr
cm
rain 24hr
cm
rain mn
cm
humidity
%
barometer
mb
20260504081552 6 359 0.0 0.0 0.00 0.00 0.00 83 1014.4
20260504044537 5 359 0.0 0.0 0.00 0.00 0.00 74 1014.3
20260504043046 5 359 0.0 0.0 0.00 0.00 0.00 76 1014.2
20260504041535 5 359 0.0 0.0 0.00 0.00 0.00 74 1014.0
20260504040030 5 359 0.0 0.0 0.00 0.00 0.00 73 1013.9
20260504034530 5 359 0.0 0.0 0.00 0.00 0.00 73 1013.8
20260504033029 6 359 0.0 0.0 0.00 0.00 0.00 69 1013.8
20260504031530 6 359 0.0 0.0 0.00 0.00 0.00 72 1013.7
20260504030035 6 359 0.0 0.0 0.00 0.00 0.00 68 1013.6
20260504024529 6 359 0.0 0.0 0.00 0.00 0.00 67 1013.7
20260504023028 7 359 0.0 0.0 0.00 0.00 0.00 65 1013.7
20260504021532 7 359 0.0 0.0 0.00 0.00 0.00 65 1013.7
20260504020035 7 359 0.0 0.0 0.00 0.00 0.00 64 1013.7
20260504014527 8 359 0.0 0.0 0.00 0.00 0.00 61 1013.6
20260504013034 8 359 0.0 0.0 0.00 0.00 0.00 61 1013.5
20260504011526 8 359 0.0 0.0 0.00 0.00 0.00 61 1013.3
20260504010025 9 359 0.0 0.0 0.00 0.00 0.00 59 1013.1
20260504004538 10 359 0.0 0.0 0.00 0.00 0.00 57 1013.0
20260504003024 10 359 0.0 0.0 0.00 0.00 0.00 56 1012.8
20260504001532 11 359 0.0 0.0 0.00 0.00 0.00 55 1012.5
20260504000024 11 359 0.0 0.0 0.00 0.00 0.00 53 1012.5
20260503234527 11 359 0.0 0.0 0.00 0.00 0.00 52 1012.4
20260503233023 12 359 0.0 0.0 0.00 0.00 0.00 51 1012.3
20260503231523 12 359 0.0 0.0 0.00 0.00 0.00 50 1012.2
20260503230027 12 359 0.0 0.0 0.00 0.00 0.00 50 1012.1
20260503224522 12 359 0.0 0.0 0.00 0.00 0.00 48 1012.1
20260503223024 13 359 0.0 0.0 0.00 0.00 0.00 47 1012.1
20260503221522 13 359 0.0 0.0 0.00 0.00 0.00 46 1012.2
20260503220030 13 359 0.0 0.0 0.00 0.00 0.00 44 1012.2
20260503214529 14 75 0.0 1.6 0.00 0.00 0.00 41 1012.2
20260503213030 14 106 0.0 0.0 0.00 0.00 0.00 42 1012.0
20260503211520 15 106 0.0 1.6 0.00 0.00 0.00 40 1011.9
20260503210020 15 66 0.0 0.0 0.00 0.00 0.00 39 1012.1
20260503204526 16 206 0.0 1.6 0.00 0.00 0.00 35 1012.0
20260503203018 17 106 0.0 0.0 0.00 0.00 0.00 36 1012.2
20260503201518 17 66 0.0 1.6 0.00 0.00 0.00 33 1012.3
20260503200016 17 75 0.0 0.0 0.00 0.00 0.00 36 1012.5
20260503194515 17 183 0.0 0.0 0.00 0.00 0.00 36 1012.5
20260503193016 17 75 0.0 1.6 0.00 0.00 0.00 36 1012.7
20260503191515 17 108 0.0 1.6 0.00 0.00 0.00 36 1012.6
20260503190016 17 65 0.0 0.0 0.00 0.00 0.00 35 1012.8
20260503184513 17 156 0.0 0.0 0.00 0.00 0.00 38 1012.9
20260503183010 17 139 0.0 4.8 0.00 0.00 0.00 36 1013.0
20260503181523 16 175 0.0 1.6 0.00 0.00 0.00 39 1013.0
20260503180021 16 254 0.0 1.6 0.00 0.00 0.00 37 1013.2
20260503174507 16 143 0.0 1.6 0.00 0.00 0.00 37 1013.1
20260503173004 15 99 0.0 1.6 0.00 0.00 0.00 39 1013.4
20260503171502 15 217 0.0 0.0 0.00 0.00 0.00 38 1013.5